Miscellaneous Local Product
Issued by NWS North Platte, NE

Home | Current Version | Previous Version | Text Only | Print | Product List | Glossary On
Versions: 1 2 3 4 5 6 7 8 9 10 11 12 13 14 15 16 17 18 19 20 21 22 23 24 25 26 27 28 29 30 31 32 33 34 35 36 37 38 39 40 41 42 43 44 45 46 47 48 49 50
979
AXUS43 KLBF 170410
MISLBF


WESTERN AND NORTH CENTRAL NEBRASKA HOURLY WEATHER ROUNDUP
NATIONAL WEATHER SERVICE NORTH PLATTE NE
1000 PM CST SAT DEC 16 2017

NOTE: "FAIR" INDICATES FEW OR NO CLOUDS BELOW 12,000 FEET WITH NO
SIGNIFICANT WEATHER AND/OR OBSTRUCTIONS TO VISIBILITY.

NOTE: STATIONS NOT REPORTING VARIABLES SUCH AS SKY/WEATHER OR
PRESSURE ARE PROVIDED BY RAWS AND APRS NETWORKS AND ARE NOT UNDER
NATIONAL WEATHER SERVICE QUALITY CONTROL.

...OBSERVATIONS IN AND NEAR THE EASTERN PANHANDLE OF NEBRASKA...

CITY           SKY/WX    TMP DP  RH WIND       PRES   REMARKS
PINE RIDGE     CLOUDY    32  26  78 N6        30.03S WCI  26
GORDON         CLOUDY    32  28  88 N3        30.02R
CHADRON        CLOUDY    31  26  82 NE5       30.04S WCI  26
ALLIANCE       CLOUDY    31  28  89 NE9       29.99R WCI  23
SIDNEY         CLOUDY    32  28  85 NE15      29.97R WCI  22
CRESCENT LAKE    N/A     50  29  43 NE9G16      N/A
$$

...OBSERVATIONS IN NORTHERN NEBRASKA AND FAR SOUTHERN SOUTH DAKOTA...

CITY           SKY/WX    TMP DP  RH WIND       PRES   REMARKS
WINNER         CLOUDY    37  32  82 N9        30.05F WCI  30
VALENTINE      CLOUDY    37  32  82 NE10      30.04R WCI  30
THEDFORD       CLOUDY    37  32  84 NE10      30.01R WCI  29
AINSWORTH      CLOUDY    36  34  91 N7        30.02S WCI  31
O`NEILL        CLOUDY    35  34  97 N8        30.02R WCI  29
ORD            CLOUDY    37  34  89 N10       29.99R WCI  30
BROKEN BOW     CLOUDY    39  33  79 N16G24    29.97S WCI  30
VALENTINE NWR    N/A     35  32  88 N6          N/A  WCI  30
HALSEY           N/A     36  30  80 NE6G13      N/A  WCI  31
BUTTE            N/A     37  33  86 NE5         N/A  WCI  33
EWING            N/A     33  30  90 N3          N/A
$$

...OBSERVATIONS IN SOUTHWEST NEBRASKA AND FAR NORTHEAST COLORADO...

CITY           SKY/WX    TMP DP  RH WIND       PRES   REMARKS
WRAY           CLOUDY    32  32 100 N12       29.94S WCI  23
HOLYOKE        CLOUDY    36  32  87 NE14G20   29.96S WCI  27
IMPERIAL       CLOUDY    36  33  89 N16       29.95S WCI  26
OGALLALA       CLOUDY    37  32  82 NE16      29.99R WCI  27
NORTH PLATTE   CLOUDY    38  33  82 NE18      29.96S WCI  28
MCCOOK         CLEAR     32  28  85 NE16      29.93R WCI  21
LEXINGTON      CLOUDY    35  31  84 NE12      29.95S WCI  27
STAPLETON        N/A     35  31  85 E8          N/A  WCI  28
GOTHENBURG       N/A     37  31  79 N9          N/A  WCI  30
CALLAWAY         N/A     36  33  90 NE14        N/A  WCI  27
$$

...OBSERVATIONS IN CENTRAL LINCOLN COUNTY AREA...

CITY           SKY/WX    TMP DP  RH WIND       PRES   REMARKS
N.P. AIRPORT   CLOUDY    38  33  82 NE18      29.96S WCI  28
N.P. DOWNTOWN    N/A     37  33  85 NE8         N/A  WCI  31
N.P. SOUTHEAST   N/A     37  33  84 N6G14       N/A  WCI  32
N.P. HILLCREST   N/A     37  33  87 NE18        N/A  WCI  27
$$

...SOME OBSERVATIONS FROM AROUND THE REGION...

CITY           SKY/WX    TMP DP  RH WIND       PRES   REMARKS
DENVER         CLOUDY    30  23  75 E15       29.91R WCI  19
GRAND JUNCTION CLOUDY    24   6  46 CALM      29.84R
LARAMIE        CLOUDY    24  20  84 SE14      29.84S WCI  12
CHEYENNE       FOG       26  26 100 E10       29.90S VSB 3/4 WCI  16
CASPER         LGT SNOW  25  23  92 N13       29.95R FOG     WCI  14
BISMARCK       CLOUDY    30  27  88 SW5       30.07R WCI  25
RAPID CITY     CLOUDY    31  23  72 N7        30.06R WCI  24
PIERRE         CLOUDY    34  31  88 CALM      30.07R
SIOUX FALLS    CLOUDY    28  27  96 N6        30.04F WCI  22
OMAHA          CLOUDY    35  24  64 N7        29.97R WCI  29
GRAND ISLAND   CLOUDY    32  31  96 N13       29.96S WCI  22
SCOTTSBLUFF    CLOUDY    34  27  75 E12       29.99R WCI  25
KANSAS CITY    CLOUDY    46  27  47 S12       29.96R
HILL CITY      PTCLDY    38  23  55 NE14      29.87R WCI  30
WICHITA        CLOUDY    53  26  35 S10       29.89S
DODGE CITY     CLOUDY    48  25  40 S14       29.81F
OKLAHOMA CITY  CLOUDY    44  37  76 S18G29    29.95S
DALLAS         LGT RAIN  45  43  93 SE10      30.05R FOG
AMARILLO       CLEAR     41  32  70 S16       29.80S
$$




USA.gov is the U.S. government's official web portal to all federal, state and local government web resources and services.